Find Progress MS-32

NORAD ID: 65586 Int'l Des: 2025-204 Owner: RKKE Country: RU decayed
LEOCIRCULAR

Historical Track — Apr 21, 2026

正在加载3D地球...

关于 Progress MS-32

正在加载描述...

高度历史

Loading altitude history...

两行轨道根数

1 65586U 25204A 26110.78039753 .00009753 00000-0 18580-3 0 9994
2 65586 51.6325 224.2241 0006702 330.9223 29.1391 15.48857372554502
Epoch: Apr 20, 2026 • Age: 226 hours

当前状态

高度 433.5 km
速度 7.65 km/s
星下点 -45.94°S, 162.61°W
发射日期 Sep 11, 2025
运行时间 0.6 years
衰减日期 Apr 21, 2026
类型 other

技术详情

分类 Payload
质量 4909.00 kg
干质量 4325.00 kg
总质量 7427.00 kg
长度 7.90 m
直径 2.70 m
跨度 7.90 m
形状 Cyl + Sphere + Cone + 2 Pan
制造商 PROGT
平台类型 7K-TGM
阶段状态 Docked
所有者/国家 RKKE/RU

Most Searched